Content
SEND FEEDBACK

Daily
Averages
Monthly
Summary
United States of America

ELDORA, IOWA


Home > North America > United States > Iowa
Elevation: 1144 feet     Latitude: 42 20N     Longitude: 093 05W

WEATHER
 
SELECT A DAY
Number of Records: 187,687;   Date Range: 9/4/96 - 7/23/14
 
SHARE

PRINT THIS DATA

[ ← Previous Day ]
WEATHER ALMANAC - JANUARY 31, 2013
[ Next Day → ]
[ °C ]   °F
Weather ElementAverageHighLow
Temperature4.6 °F12.2 °F (12:45 am)-2 °F (11:53 pm)
Dewpoint-1.9 °F7 °F (12:53 am)-9 °F (11:53 pm)
Humidity74.6 %85 % (3:13 pm)66 % (7:07 pm)
Barometer30.08 in30.40 in (11:53 pm)29.82 in (12:45 am)
Wind Speed22.8 mph32.2 mph (1:45 pm)
Wind Gust38 mph (1:45 pm)
Weather ElementAverage
Visibility6.7 mi
Wind DirectionWNW (299.5 °)

Weather ElementTotal
Precipitation---
Heating Degree Days59.9 (Base 65)
Averaged from 41 records on January 31, 2013
WEATHER CONDITIONS BREAKOUT
WIND DIRECTION BREAKOUT
WEATHER BY HOUR - JANUARY 31, 2013
[ °C ]   °F
Local TimeTemperatureDewpointHumidityBarometerVisibilityWind DirectionWind SpeedGust SpeedPrecipitationEventsConditions
12:45 AM12.2 °F6.8 °F79 %29.82 in5.0 miWNW (290°)17.3 mph0.00 inSnowLight Snow
12:53 AM12.0 °F7.0 °F80 %29.87 in3.0 miWNW (290°)18.4 mph0.00 inSnowLight Snow
1:27 AM10.4 °F5.0 °F79 %29.83 in9.0 miWNW (290°)13.8 mph0.00 inSnowLight Snow
1:53 AM10.0 °F5.0 °F80 %29.89 in9.0 miWNW (290°)16.1 mph0.00 inSnowLight Snow
2:26 AM10.4 °F3.2 °F73 %29.84 in10.0 miWNW (290°)17.3 mph0.00 inOvercast
2:53 AM9.0 °F3.9 °F80 %29.90 in6.0 miWNW (300°)20.7 mph0.00 inSnowLight Snow
3:05 AM8.6 °F3.2 °F79 %29.84 in10.0 miWNW (300°)20.7 mph0.00 inMostly Cloudy
3:53 AM8.1 °F1.9 °F76 %29.91 in10.0 miWNW (290°)18.4 mph23.0 mph0.00 inMostly Cloudy
4:53 AM6.1 °F0.0 °F76 %29.92 in10.0 miWNW (290°)18.4 mphMostly Cloudy
5:06 AM6.8 °F-0.4 °F72 %29.87 in10.0 miWNW (290°)21.9 mphScattered Clouds
5:53 AM3.9 °F-2.0 °F76 %29.96 in10.0 miWNW (300°)20.7 mphClear
6:53 AM3.0 °F-4.0 °F73 %29.98 in10.0 miWNW (300°)23.0 mph29.9 mphPartly Cloudy
7:06 AM3.2 °F-4.0 °F72 %29.92 in10.0 miNW (310°)23.0 mphMostly Cloudy
7:46 AM3.2 °F-2.2 °F78 %29.94 in10.0 miWNW (300°)19.6 mphMostly Cloudy
7:53 AM3.0 °F-2.9 °F76 %30.00 in10.0 miWNW (300°)18.4 mphOvercast
8:53 AM3.0 °F-2.9 °F76 %30.04 in9.0 miWNW (300°)24.2 mphMostly Cloudy
9:53 AM3.9 °F-4.0 °F70 %30.07 in8.0 miWNW (300°)25.3 mphMostly Cloudy
10:53 AM3.0 °F-4.0 °F73 %30.10 in4.0 miWNW (300°)27.6 mph34.5 mphHaze
11:45 AM3.2 °F-2.2 °F78 %30.06 in2.5 miNW (310°)25.3 mph35.7 mph0.00 inOvercast
11:53 AM3.9 °F-2.0 °F76 %30.13 in4.0 miWNW (300°)25.3 mph31.1 mph0.00 inHaze
12:51 PM5.0 °F-2.2 °F72 %30.07 in2.0 miWNW (300°)27.6 mphHaze
12:53 PM5.0 °F-2.0 °F73 %30.14 in2.5 miWNW (300°)27.6 mphHaze
1:20 PM5.0 °F-0.4 °F78 %30.08 in0.8 miNW (310°)26.5 mph0.00 inSnowLight Snow
1:45 PM5.0 °F-2.2 °F72 %30.09 in1.5 miNW (310°)32.2 mph38.0 mph0.00 inSnowBlowing Snow
1:53 PM6.1 °F-2.9 °F67 %30.16 in1.8 miNW (310°)28.8 mph0.00 inSnowBlowing Snow
2:53 PM5.0 °F-0.9 °F76 %30.17 in1.2 miNW (310°)28.8 mph35.7 mph0.00 inSnowLight Snow
3:13 PM3.2 °F-0.4 °F85 %30.12 in0.8 miNW (310°)29.9 mph35.7 mph0.00 inSnowLight Snow
3:28 PM3.2 °F-2.2 °F78 %30.12 in2.0 miNW (310°)26.5 mph35.7 mph0.00 inHaze
3:53 PM3.9 °F-2.9 °F73 %30.21 in2.0 miWNW (300°)29.9 mph34.5 mph0.00 inHaze
4:01 PM3.2 °F-0.4 °F85 %30.14 in1.0 miNW (310°)27.6 mph35.7 mph0.00 inSnowLight Snow
4:22 PM3.2 °F-2.2 °F78 %30.15 in3.0 miWNW (300°)25.3 mph33.4 mph0.00 inHaze
4:53 PM3.9 °F-2.0 °F76 %30.24 in5.0 miWNW (300°)24.2 mph0.00 inHaze
6:53 PM3.0 °F-5.1 °F69 %30.29 in10.0 miWNW (300°)24.2 mph31.1 mphScattered Clouds
7:07 PM3.2 °F-5.8 °F66 %30.22 in10.0 miNW (310°)20.7 mph28.8 mphMostly Cloudy
7:15 PM3.2 °F-5.8 °F66 %30.22 in10.0 miWNW (300°)21.9 mph26.5 mphPartly Cloudy
8:53 PM1.9 °F-6.0 °F69 %30.33 in10.0 miWNW (300°)20.7 mph27.6 mphClear
9:53 PM1.0 °F-7.1 °F69 %30.35 in10.0 miWNW (300°)23.0 mphClear
10:35 PM-0.4 °F-7.6 °F72 %30.29 in10.0 miWNW (290°)18.4 mphMostly Cloudy
10:53 PM0.0 °F-8.0 °F69 %30.38 in10.0 miWNW (290°)19.6 mphMostly Cloudy
11:00 PM-0.4 °F-7.6 °F72 %30.30 in10.0 miWNW (290°)20.7 mphScattered Clouds
11:53 PM-2.0 °F-9.0 °F72 %30.40 in10.0 miWNW (290°)15.0 mphClear
Hourly data recorded from KMIW, located miles away from Eldora, Iowa







STORIES FROM OUR PARTNERS